Time,TemperatureF,DewpointF,PressureIn,WindDirection,WindDirectionDegrees,WindSpeedMPH,WindSpeedGustMPH,Humidity,HourlyPrecipIn,Conditions,Clouds,dailyrainin,SoftwareType,DateUTC
2013-03-24 00:03:00,35.0,25.0,29.49,WNW,293,6.0,14.0,67,0.00,,,-99.99,,2013-03-24 04:03:00,
2013-03-24 00:13:00,35.0,25.0,29.49,WNW,293,6.0,14.0,67,0.00,,,-99.99,,2013-03-24 04:13:00,
2013-03-24 00:23:00,35.0,25.0,29.49,WNW,293,6.0,14.0,67,0.00,,,-99.99,,2013-03-24 04:23:00,
2013-03-24 00:33:00,34.0,25.0,29.49,WNW,299,4.0,13.0,70,0.00,,,-99.99,,2013-03-24 04:33:00,
2013-03-24 00:43:00,34.0,25.0,29.49,WNW,299,4.0,13.0,70,0.00,,,-99.99,,2013-03-24 04:43:00,
2013-03-24 00:53:00,34.0,26.0,29.49,NW,316,3.0,11.0,72,0.00,,,-99.99,,2013-03-24 04:53:00,
2013-03-24 01:03:00,34.0,26.0,29.49,NNW,328,2.0,8.0,73,0.00,,,-99.99,,2013-03-24 05:03:00,
2013-03-24 01:13:00,34.0,26.0,29.49,NNW,328,2.0,8.0,73,0.00,,,-99.99,,2013-03-24 05:13:00,
2013-03-24 01:23:00,33.0,26.0,29.50,NW,316,4.0,15.0,74,0.00,,,-99.99,,2013-03-24 05:23:00,
2013-03-24 01:32:00,33.0,26.0,29.50,NW,314,3.0,11.0,74,0.00,,,-99.99,,2013-03-24 05:32:00,
2013-03-24 01:42:00,33.0,26.0,29.50,NW,314,3.0,11.0,74,0.00,,,-99.99,,2013-03-24 05:42:00,
2013-03-24 01:52:00,33.0,26.0,29.50,NW,313,4.0,10.0,75,0.00,,,-99.99,,2013-03-24 05:52:00,
2013-03-24 02:02:00,33.0,26.0,29.51,NW,318,5.0,8.0,75,0.00,,,-99.99,,2013-03-24 06:02:00,
2013-03-24 02:12:00,33.0,26.0,29.51,NW,318,5.0,8.0,75,0.00,,,-99.99,,2013-03-24 06:12:00,
2013-03-24 02:22:00,33.0,26.0,29.52,NW,312,3.0,10.0,76,0.00,,,-99.99,,2013-03-24 06:22:00,
2013-03-24 02:32:00,33.0,26.0,29.52,NW,310,6.0,12.0,76,0.00,,,-99.99,,2013-03-24 06:32:00,
2013-03-24 02:42:00,33.0,26.0,29.52,NW,310,6.0,12.0,76,0.00,,,-99.99,,2013-03-24 06:42:00,
2013-03-24 02:52:00,33.0,26.0,29.52,NW,308,4.0,10.0,76,0.00,,,-99.99,,2013-03-24 06:52:00,
2013-03-24 03:02:00,32.0,26.0,29.53,NW,324,3.0,11.0,77,0.00,,,-99.99,,2013-03-24 07:02:00,
2013-03-24 03:12:00,32.0,26.0,29.53,NW,324,3.0,11.0,77,0.00,,,-99.99,,2013-03-24 07:12:00,
2013-03-24 03:22:00,32.0,26.0,29.53,NW,324,3.0,11.0,77,0.00,,,-99.99,,2013-03-24 07:22:00,
2013-03-24 03:32:00,32.0,26.0,29.53,NNW,332,5.0,8.0,77,0.00,,,-99.99,,2013-03-24 07:32:00,
2013-03-24 03:42:00,32.0,26.0,29.53,NNW,332,5.0,8.0,77,0.00,,,-99.99,,2013-03-24 07:42:00,
2013-03-24 03:52:00,32.0,26.0,29.54,NW,315,3.0,6.0,78,0.00,,,-99.99,,2013-03-24 07:52:00,
2013-03-24 04:03:00,32.0,26.0,29.54,NW,324,4.0,6.0,79,0.00,,,-99.99,,2013-03-24 08:03:00,
2013-03-24 04:12:00,32.0,26.0,29.54,NW,324,4.0,6.0,79,0.00,,,-99.99,,2013-03-24 08:12:00,
2013-03-24 04:22:00,32.0,26.0,29.54,NW,319,2.0,7.0,79,0.00,,,-99.99,,2013-03-24 08:22:00,
2013-03-24 04:32:00,32.0,26.0,29.54,NW,319,2.0,7.0,79,0.00,,,-99.99,,2013-03-24 08:32:00,
2013-03-24 04:42:00,32.0,26.0,29.54,NW,319,2.0,7.0,79,0.00,,,-99.99,,2013-03-24 08:42:00,
2013-03-24 04:52:00,31.0,25.0,29.55,NW,313,4.0,8.0,79,0.00,,,-99.99,,2013-03-24 08:52:00,
2013-03-24 05:02:00,31.0,26.0,29.55,NNW,330,4.0,6.0,80,0.00,,,-99.99,,2013-03-24 09:02:00,
2013-03-24 05:12:00,31.0,26.0,29.55,NNW,330,4.0,6.0,80,0.00,,,-99.99,,2013-03-24 09:12:00,
2013-03-24 05:22:00,30.0,25.0,29.56,NW,322,2.0,5.0,81,0.00,,,-99.99,,2013-03-24 09:22:00,
2013-03-24 05:33:00,30.0,25.0,29.56,NW,322,2.0,5.0,81,0.00,,,-99.99,,2013-03-24 09:33:00,
2013-03-24 05:43:00,30.0,25.0,29.56,NW,322,2.0,5.0,81,0.00,,,-99.99,,2013-03-24 09:43:00,
2013-03-24 05:53:00,29.0,24.0,29.56,NW,321,0.0,5.0,82,0.00,,,-99.99,,2013-03-24 09:53:00,
2013-03-24 06:03:00,29.0,25.0,29.57,NW,321,0.0,3.0,83,0.00,,,-99.99,,2013-03-24 10:03:00,
2013-03-24 06:13:00,29.0,25.0,29.57,NW,321,0.0,3.0,83,0.00,,,-99.99,,2013-03-24 10:13:00,
2013-03-24 06:23:00,29.0,25.0,29.57,NW,321,0.0,3.0,83,0.00,,,-99.99,,2013-03-24 10:23:00,
2013-03-24 06:33:00,28.0,24.0,29.59,NW,321,2.0,5.0,84,0.00,,,-99.99,,2013-03-24 10:33:00,
2013-03-24 06:42:00,28.0,24.0,29.59,NW,321,2.0,5.0,84,0.00,,,-99.99,,2013-03-24 10:42:00,
2013-03-24 06:53:00,28.0,24.0,29.59,NW,314,2.0,9.0,84,0.00,,,-99.99,,2013-03-24 10:53:00,
2013-03-24 07:03:00,28.0,24.0,29.59,NW,321,3.0,11.0,84,0.00,,,-99.99,,2013-03-24 11:03:00,
2013-03-24 07:12:00,28.0,24.0,29.59,NW,321,3.0,11.0,84,0.00,,,-99.99,,2013-03-24 11:12:00,
2013-03-24 07:22:00,29.0,25.0,29.60,NW,317,0.0,5.0,84,0.00,,,-99.99,,2013-03-24 11:22:00,
2013-03-24 07:33:00,29.0,25.0,29.61,NW,320,1.0,5.0,84,0.00,,,-99.99,,2013-03-24 11:33:00,
2013-03-24 07:42:00,29.0,25.0,29.61,NW,320,1.0,5.0,84,0.00,,,-99.99,,2013-03-24 11:42:00,
2013-03-24 07:52:00,30.0,25.0,29.62,WNW,302,5.0,7.0,82,0.00,,,-99.99,,2013-03-24 11:52:00,
2013-03-24 08:03:00,31.0,26.0,29.63,NW,320,2.0,7.0,81,0.00,,,-99.99,,2013-03-24 12:03:00,
2013-03-24 08:12:00,31.0,26.0,29.63,NW,320,2.0,7.0,81,0.00,,,-99.99,,2013-03-24 12:12:00,
2013-03-24 08:22:00,33.0,27.0,29.64,NNW,333,7.0,10.0,77,0.00,,,-99.99,,2013-03-24 12:22:00,
2013-03-24 08:32:00,33.0,26.0,29.64,NNW,328,6.0,11.0,76,0.00,,,-99.99,,2013-03-24 12:32:00,
2013-03-24 08:42:00,33.0,26.0,29.64,NNW,328,6.0,11.0,76,0.00,,,-99.99,,2013-03-24 12:42:00,
2013-03-24 08:52:00,34.0,26.0,29.65,NW,320,4.0,14.0,71,0.00,,,-99.99,,2013-03-24 12:52:00,
2013-03-24 09:02:00,36.0,25.0,29.65,NNW,348,5.0,17.0,64,0.00,,,-99.99,,2013-03-24 13:02:00,
2013-03-24 09:13:00,36.0,25.0,29.65,NNW,348,5.0,17.0,64,0.00,,,-99.99,,2013-03-24 13:13:00,
2013-03-24 09:22:00,36.0,24.0,29.66,NW,311,11.0,16.0,62,0.00,,,-99.99,,2013-03-24 13:22:00,
2013-03-24 09:32:00,37.0,24.0,29.67,WNW,300,6.0,20.0,58,0.00,,,-99.99,,2013-03-24 13:32:00,
2013-03-24 09:42:00,37.0,24.0,29.67,WNW,300,6.0,20.0,58,0.00,,,-99.99,,2013-03-24 13:42:00,
2013-03-24 09:52:00,38.0,24.0,29.68,North,351,13.0,15.0,57,0.00,,,-99.99,,2013-03-24 13:52:00,
2013-03-24 10:02:00,39.0,24.0,29.68,NW,323,3.0,18.0,55,0.00,,,-99.99,,2013-03-24 14:02:00,
2013-03-24 10:12:00,39.0,24.0,29.68,NW,323,3.0,18.0,55,0.00,,,-99.99,,2013-03-24 14:12:00,
2013-03-24 10:22:00,39.0,24.0,29.67,NW,326,6.0,14.0,55,0.00,,,-99.99,,2013-03-24 14:22:00,
2013-03-24 10:32:00,41.0,26.0,29.68,North,4,14.0,14.0,55,0.00,,,-99.99,,2013-03-24 14:32:00,
2013-03-24 10:42:00,41.0,26.0,29.68,North,4,14.0,14.0,55,0.00,,,-99.99,,2013-03-24 14:42:00,
2013-03-24 10:53:00,41.0,26.0,29.68,NW,323,5.0,14.0,54,0.00,,,-99.99,,2013-03-24 14:53:00,
2013-03-24 11:02:00,41.0,26.0,29.68,NW,323,5.0,14.0,54,0.00,,,-99.99,,2013-03-24 15:02:00,
2013-03-24 11:12:00,41.0,26.0,29.68,NW,323,5.0,14.0,54,0.00,,,-99.99,,2013-03-24 15:12:00,
2013-03-24 11:22:00,42.0,24.0,29.67,NW,321,7.0,15.0,49,0.00,,,-99.99,,2013-03-24 15:22:00,
2013-03-24 11:33:00,42.0,24.0,29.67,NW,321,7.0,15.0,49,0.00,,,-99.99,,2013-03-24 15:33:00,
2013-03-24 11:43:00,42.0,24.0,29.67,NW,321,7.0,15.0,49,0.00,,,-99.99,,2013-03-24 15:43:00,
2013-03-24 11:53:00,42.0,25.0,29.67,NNW,345,10.0,20.0,50,0.00,,,-99.99,,2013-03-24 15:53:00,
2013-03-24 12:03:00,42.0,27.0,29.66,WNW,294,10.0,17.0,54,0.00,,,-99.99,,2013-03-24 16:03:00,
2013-03-24 12:13:00,42.0,27.0,29.66,WNW,294,10.0,17.0,54,0.00,,,-99.99,,2013-03-24 16:13:00,
2013-03-24 12:23:00,41.0,27.0,29.66,NW,304,4.0,17.0,57,0.00,,,-99.99,,2013-03-24 16:23:00,
2013-03-24 12:33:00,42.0,27.0,29.66,WNW,296,6.0,16.0,56,0.00,,,-99.99,,2013-03-24 16:33:00,
2013-03-24 12:42:00,42.0,27.0,29.66,WNW,296,6.0,16.0,56,0.00,,,-99.99,,2013-03-24 16:42:00,
2013-03-24 12:52:00,42.0,27.0,29.66,WNW,296,6.0,16.0,56,0.00,,,-99.99,,2013-03-24 16:52:00,
2013-03-24 13:03:00,43.0,27.0,29.65,WNW,291,13.0,14.0,52,0.00,,,-99.99,,2013-03-24 17:03:00,
2013-03-24 13:12:00,43.0,27.0,29.65,WNW,291,13.0,14.0,52,0.00,,,-99.99,,2013-03-24 17:12:00,
2013-03-24 13:23:00,42.0,26.0,29.65,NW,320,4.0,14.0,52,0.00,,,-99.99,,2013-03-24 17:23:00,
2013-03-24 13:33:00,42.0,26.0,29.65,NW,320,4.0,14.0,52,0.00,,,-99.99,,2013-03-24 17:33:00,
2013-03-24 13:42:00,42.0,26.0,29.65,NW,320,4.0,14.0,52,0.00,,,-99.99,,2013-03-24 17:42:00,
2013-03-24 13:53:00,44.0,28.0,29.65,NNW,328,6.0,15.0,53,0.00,,,-99.99,,2013-03-24 17:53:00,
2013-03-24 14:03:00,44.0,28.0,29.65,NNW,328,6.0,15.0,53,0.00,,,-99.99,,2013-03-24 18:03:00,
2013-03-24 14:12:00,44.0,28.0,29.65,NNW,328,6.0,15.0,53,0.00,,,-99.99,,2013-03-24 18:12:00,
2013-03-24 14:22:00,45.0,26.0,29.65,NNE,12,6.0,16.0,47,0.00,,,-99.99,,2013-03-24 18:22:00,
2013-03-24 14:33:00,45.0,27.0,29.65,NW,315,17.0,24.0,49,0.00,,,-99.99,,2013-03-24 18:33:00,
2013-03-24 14:43:00,45.0,27.0,29.65,NW,315,17.0,24.0,49,0.00,,,-99.99,,2013-03-24 18:43:00,
2013-03-24 14:52:00,44.0,27.0,29.65,WNW,301,7.0,22.0,50,0.00,,,-99.99,,2013-03-24 18:52:00,
2013-03-24 15:02:00,44.0,27.0,29.65,NW,318,13.0,22.0,51,0.00,,,-99.99,,2013-03-24 19:02:00,
2013-03-24 15:12:00,44.0,27.0,29.65,NW,318,13.0,22.0,51,0.00,,,-99.99,,2013-03-24 19:12:00,
2013-03-24 15:22:00,43.0,26.0,29.65,NW,326,11.0,21.0,51,0.00,,,-99.99,,2013-03-24 19:22:00,
2013-03-24 15:32:00,44.0,27.0,29.65,NW,322,11.0,14.0,50,0.00,,,-99.99,,2013-03-24 19:32:00,
2013-03-24 15:43:00,44.0,27.0,29.65,NW,322,11.0,14.0,50,0.00,,,-99.99,,2013-03-24 19:43:00,
2013-03-24 15:52:00,43.0,27.0,29.66,NW,320,8.0,16.0,52,0.00,,,-99.99,,2013-03-24 19:52:00,
2013-03-24 16:03:00,43.0,26.0,29.67,WNW,299,5.0,16.0,51,0.00,,,-99.99,,2013-03-24 20:03:00,
2013-03-24 16:12:00,43.0,26.0,29.67,WNW,299,5.0,16.0,51,0.00,,,-99.99,,2013-03-24 20:12:00,
2013-03-24 16:22:00,44.0,27.0,29.66,NNE,14,6.0,18.0,51,0.00,,,-99.99,,2013-03-24 20:22:00,
2013-03-24 16:32:00,44.0,27.0,29.66,NW,309,9.0,18.0,50,0.00,,,-99.99,,2013-03-24 20:32:00,
2013-03-24 16:42:00,44.0,27.0,29.66,NW,309,9.0,18.0,50,0.00,,,-99.99,,2013-03-24 20:42:00,
2013-03-24 16:53:00,44.0,27.0,29.66,NW,309,9.0,18.0,50,0.00,,,-99.99,,2013-03-24 20:53:00,
2013-03-24 17:02:00,44.0,26.0,29.66,NNW,343,8.0,14.0,49,0.00,,,-99.99,,2013-03-24 21:02:00,
2013-03-24 17:12:00,44.0,26.0,29.66,NNW,343,8.0,14.0,49,0.00,,,-99.99,,2013-03-24 21:12:00,
2013-03-24 17:23:00,44.0,26.0,29.66,NNE,29,6.0,18.0,49,0.00,,,-99.99,,2013-03-24 21:23:00,
2013-03-24 17:33:00,44.0,26.0,29.67,West,275,0.0,12.0,49,0.00,,,-99.99,,2013-03-24 21:33:00,
2013-03-24 17:43:00,44.0,26.0,29.67,West,275,0.0,12.0,49,0.00,,,-99.99,,2013-03-24 21:43:00,
2013-03-24 17:53:00,43.0,27.0,29.67,NNW,333,4.0,13.0,52,0.00,,,-99.99,,2013-03-24 21:53:00,
2013-03-24 18:03:00,43.0,27.0,29.68,North,7,2.0,8.0,52,0.00,,,-99.99,,2013-03-24 22:03:00,
2013-03-24 18:13:00,43.0,27.0,29.68,North,7,2.0,8.0,52,0.00,,,-99.99,,2013-03-24 22:13:00,
2013-03-24 18:23:00,43.0,27.0,29.68,NNW,328,5.0,7.0,52,0.00,,,-99.99,,2013-03-24 22:23:00,
2013-03-24 18:33:00,43.0,27.0,29.68,NW,322,0.0,7.0,52,0.00,,,-99.99,,2013-03-24 22:33:00,
2013-03-24 18:43:00,43.0,27.0,29.68,NW,322,0.0,7.0,52,0.00,,,-99.99,,2013-03-24 22:43:00,
2013-03-24 18:52:00,42.0,27.0,29.69,NW,324,0.0,5.0,54,0.00,,,-99.99,,2013-03-24 22:52:00,
2013-03-24 19:03:00,42.0,27.0,29.69,NW,324,0.0,3.0,54,0.00,,,-99.99,,2013-03-24 23:03:00,
2013-03-24 19:12:00,42.0,27.0,29.69,NW,324,0.0,3.0,54,0.00,,,-99.99,,2013-03-24 23:12:00,
2013-03-24 19:22:00,41.0,27.0,29.69,NW,324,0.0,3.0,56,0.00,,,-99.99,,2013-03-24 23:22:00,
2013-03-24 19:32:00,40.0,27.0,29.70,NW,324,0.0,1.0,59,0.00,,,-99.99,,2013-03-24 23:32:00,
2013-03-24 19:42:00,40.0,27.0,29.70,NW,324,0.0,1.0,59,0.00,,,-99.99,,2013-03-24 23:42:00,
2013-03-24 19:53:00,39.0,27.0,29.70,NW,324,0.0,0.0,63,0.00,,,-99.99,,2013-03-24 23:53:00,
2013-03-24 20:02:00,36.0,27.0,29.70,NW,324,0.0,0.0,69,0.00,,,-99.99,,2013-03-25 00:02:00,
2013-03-24 20:12:00,36.0,27.0,29.70,NW,324,0.0,0.0,69,0.00,,,-99.99,,2013-03-25 00:12:00,
2013-03-24 20:22:00,33.0,26.0,29.71,NW,324,0.0,0.0,74,0.00,,,-99.99,,2013-03-25 00:22:00,
2013-03-24 20:32:00,33.0,27.0,29.71,NW,324,0.0,0.0,77,0.00,,,-99.99,,2013-03-25 00:32:00,
2013-03-24 20:42:00,33.0,27.0,29.71,NW,324,0.0,0.0,77,0.00,,,-99.99,,2013-03-25 00:42:00,
2013-03-24 20:53:00,31.0,26.0,29.72,NW,324,0.0,0.0,81,0.00,,,-99.99,,2013-03-25 00:53:00,
2013-03-24 21:02:00,31.0,26.0,29.72,NW,324,0.0,0.0,81,0.00,,,-99.99,,2013-03-25 01:02:00,
2013-03-24 21:12:00,31.0,26.0,29.72,NW,324,0.0,0.0,81,0.00,,,-99.99,,2013-03-25 01:12:00,
2013-03-24 21:22:00,31.0,26.0,29.72,NW,324,0.0,0.0,81,0.00,,,-99.99,,2013-03-25 01:22:00,
2013-03-24 21:32:00,30.0,25.0,29.72,NW,324,0.0,0.0,82,0.00,,,-99.99,,2013-03-25 01:32:00,
2013-03-24 21:42:00,30.0,25.0,29.72,NW,324,0.0,0.0,82,0.00,,,-99.99,,2013-03-25 01:42:00,
2013-03-24 21:52:00,29.0,25.0,29.71,NW,324,0.0,0.0,84,0.00,,,-99.99,,2013-03-25 01:52:00,
2013-03-24 22:02:00,29.0,25.0,29.71,NW,324,0.0,0.0,84,0.00,,,-99.99,,2013-03-25 02:02:00,
2013-03-24 22:12:00,29.0,25.0,29.71,NW,324,0.0,0.0,84,0.00,,,-99.99,,2013-03-25 02:12:00,
2013-03-24 22:22:00,28.0,24.0,29.71,NW,324,0.0,0.0,85,0.00,,,-99.99,,2013-03-25 02:22:00,
2013-03-24 22:33:00,28.0,25.0,29.70,NW,324,0.0,0.0,87,0.00,,,-99.99,,2013-03-25 02:33:00,
2013-03-24 22:42:00,28.0,25.0,29.70,NW,324,0.0,0.0,87,0.00,,,-99.99,,2013-03-25 02:42:00,
2013-03-24 22:52:00,28.0,24.0,29.69,NW,324,0.0,0.0,86,0.00,,,-99.99,,2013-03-25 02:52:00,
2013-03-24 23:03:00,27.0,24.0,29.70,NW,323,0.0,0.0,87,0.00,,,-99.99,,2013-03-25 03:03:00,
2013-03-24 23:13:00,27.0,24.0,29.70,NW,323,0.0,0.0,87,0.00,,,-99.99,,2013-03-25 03:13:00,
2013-03-24 23:23:00,27.0,24.0,29.70,NW,324,0.0,0.0,87,0.00,,,-99.99,,2013-03-25 03:23:00,
2013-03-24 23:34:00,27.0,24.0,29.71,NW,323,0.0,0.0,88,0.00,,,-99.99,,2013-03-25 03:34:00,
2013-03-24 23:43:00,27.0,24.0,29.71,NW,324,0.0,0.0,88,0.00,,,-99.99,,2013-03-25 03:43:00,
2013-03-24 23:53:00,27.0,24.0,29.71,NW,324,0.0,0.0,88,0.00,,,-99.99,,2013-03-25 03:53:00,